Weather History for EIKN - July, 2013

Change the Weather History Date:

Friday, July 19, 2013

  Actual Average Record
Temperature  
Mean Temperature 70 °F -  
Max Temperature 81 °F - - ()
Min Temperature 59 °F - - ()
Cooling Degree Days 5    
Growing Degree Days 20 (Base 50)    
Moisture  
Dew Point 59 °F    
Average Humidity 61    
Maximum Humidity 94    
Minimum Humidity 40    
Precipitation  
Precipitation 0.00 in - - ()
Sea Level Pressure  
Sea Level Pressure 30.30 in    
Wind  
Wind Speed 8 mph ()    
Max Wind Speed 12 mph    
Max Gust Speed -    
Visibility 6.7 miles    
Events      
T = Trace of Precipitation, MM = Missing Value Source: Averaged Metar Reports

Daily Weather History Graph

Daily Weather History Graph

Search for Another Location

Airport or City:

Trip Planner

Search our weather history database for the weather conditions in past years. The results will help you decide how hot, cold, wet, or windy it might be!

Date:

Astronomy

Jul. 19, 2013 Rise Set
Actual Time 5:28 AM IST 9:53 PM IST
Civil Twilight 4:40 AM IST 10:41 PM IST
Nautical Twilight 3:25 AM IST 11:55 PM IST
Astronomical Twilight 2:13 AM IST 1:09 AM IST
Moon 6:39 PM IST (7/19) 2:02 AM IST (7/19)
Length of Visible Light 18h 01m
Length of Day
16h 24m
Waxing Gibbous, 84% of the Moon is Illuminated
Jul 19
Waxing Gibbous
Jul 22
Full
Jul 29
Last Quarter
Aug 6
New
Aug 14
First Quarter

Hourly Weather History & Observations

Time (IST) Temp. Heat Index Dew Point Humidity Pressure Visibility Wind Dir Wind Speed Gust Speed Precip Events Conditions
1:00 AM 62 °F - 59 °F 86% 30.38 in - NE 8.9 mph - -  
6:00 AM 60.8 °F - 59.0 °F 94% 30.33 in 6.2 mi East 8.1 mph - N/A   Partly Cloudy
7:00 AM 63 °F - 60 °F 85% 30.35 in 17 mi East 6.7 mph - -   Clear
7:00 AM 62.6 °F - 59.0 °F 88% 30.36 in - East 6.9 mph - N/A   Clear
7:30 AM 64.4 °F - 59.0 °F 83% 30.33 in - East 6.9 mph - N/A   Clear
8:00 AM 64.4 °F - 59.0 °F 83% 30.33 in - East 6.9 mph - N/A   Clear
8:30 AM 66.2 °F - 59.0 °F 78% 30.33 in - East 6.9 mph - N/A   Clear
9:00 AM 68.0 °F - 59.0 °F 73% 30.33 in - East 10.4 mph - N/A   Clear
9:30 AM 69.8 °F - 59.0 °F 68% 30.33 in - East 11.5 mph - N/A   Clear
10:00 AM 69.8 °F - 59.0 °F 68% 30.33 in 6.2 mi East 11.5 mph - N/A   Partly Cloudy
10:30 AM 71.6 °F - 59.0 °F 64% 30.33 in 6.2 mi ESE 11.5 mph - N/A   Partly Cloudy
11:00 AM 73.4 °F - 59.0 °F 61% 30.33 in 6.2 mi East 10.4 mph - N/A   Partly Cloudy
11:30 AM 73.4 °F - 60.8 °F 65% 30.33 in 6.2 mi ESE 10.4 mph - N/A   Partly Cloudy
12:00 PM 75.2 °F - 59.0 °F 57% 30.33 in 6.2 mi ESE 9.2 mph - N/A   Partly Cloudy
12:30 PM 75.2 °F - 60.8 °F 61% 30.30 in 6.2 mi ESE 10.4 mph - N/A   Partly Cloudy
1:00 PM 78 °F - 60 °F 44% 30.30 in 37 mi SE 8.9 mph - -   Scattered Clouds
1:00 PM 77.0 °F - 60.8 °F 57% 30.30 in 6.2 mi SE 9.2 mph - N/A   Partly Cloudy
1:30 PM 78.8 °F - 57.2 °F 47% 30.30 in 6.2 mi ESE 9.2 mph - N/A   Partly Cloudy
2:00 PM 78.8 °F - 57.2 °F 47% 30.30 in 6.2 mi SE 8.1 mph - N/A   Partly Cloudy
2:30 PM 80.6 °F 80.5 °F 55.4 °F 42% 30.30 in 6.2 mi SE 9.2 mph - N/A   Partly Cloudy
3:00 PM 80.6 °F 80.5 °F 55.4 °F 42% 30.30 in 6.2 mi SSE 8.1 mph - N/A   Partly Cloudy
3:30 PM 80.6 °F 80.5 °F 55.4 °F 42% 30.27 in 6.2 mi SSE 9.2 mph - N/A   Partly Cloudy
4:00 PM 80.6 °F 80.8 °F 57.2 °F 45% 30.27 in 6.2 mi South 8.1 mph - N/A   Partly Cloudy
4:30 PM 80.6 °F 81.5 °F 60.8 °F 51% 30.27 in 6.2 mi South 8.1 mph - N/A   Scattered Clouds
5:00 PM 80.6 °F 81.5 °F 60.8 °F 51% 30.27 in 6.2 mi SSE 8.1 mph - N/A   Scattered Clouds
5:30 PM 80.6 °F 81.5 °F 60.8 °F 51% 30.27 in 6.2 mi SE 6.9 mph - N/A   Scattered Clouds
6:00 PM 80.6 °F 81.5 °F 60.8 °F 51% 30.24 in 6.2 mi SE 8.1 mph - N/A   Scattered Clouds
7:00 PM 80 °F - 60 °F 40% 30.23 in 44 mi ESE 8.9 mph - -   Partly Cloudy
7:00 PM 80.6 °F 81.1 °F 59.0 °F 48% 30.24 in 6.2 mi ESE 9.2 mph - N/A   Scattered Clouds
7:30 PM 78.8 °F - 62.6 °F 57% 30.24 in 6.2 mi SSE 3.5 mph - N/A   Scattered Clouds